CFG1576 EDDM-LEIB

Flight info

Callsign CFG1576
Flight time N/A
Altitude 33000
Route TURBU7S TURBU Y107 TOBSO DCT BAKOR DCT MISPO DCT PIDAD DCT TALEP DCT RARQU DCT BALEN DCT SORAS N850 POS
Aircraft A320/M-SDE3FGHIRWY/LB1

Departure

Time 2026-05-05 15:12
Airport Munich Airport (EDDM)

Arrival

Time N/A
Airport Ibiza Airport (LEIB)
Time Latitude Longitude Altitude Speed Heading
2026-05-05 14:16 48.35112 11.77944 1485 ft 0 kts 83°
2026-05-05 14:57 48.35110 11.77920 1473 ft 2 kts 84°
2026-05-05 14:57 48.35109 11.77896 1482 ft 2 kts 88°
2026-05-05 14:58 48.35109 11.77870 1476 ft 2 kts 119°
2026-05-05 14:58 48.35120 11.77857 1476 ft 1 kts 173°
2026-05-05 14:58 48.35123 11.77857 1476 ft 0 kts 173°
2026-05-05 15:01 48.35094 11.77862 1477 ft 8 kts 173°
2026-05-05 15:02 48.35042 11.77871 1481 ft 7 kts 173°
2026-05-05 15:02 48.35003 11.77878 1485 ft 5 kts 173°
2026-05-05 15:02 48.34975 11.77882 1485 ft 3 kts 173°
2026-05-05 15:02 48.34931 11.77890 1479 ft 8 kts 173°
2026-05-05 15:03 48.34881 11.77890 1485 ft 6 kts 187°
2026-05-05 15:03 48.34837 11.77878 1485 ft 10 kts 190°
2026-05-05 15:03 48.34775 11.77882 1482 ft 8 kts 173°
2026-05-05 15:03 48.34728 11.77890 1482 ft 6 kts 173°
2026-05-05 15:04 48.34690 11.77906 1477 ft 8 kts 149°
2026-05-05 15:04 48.34669 11.77972 1484 ft 7 kts 93°
2026-05-05 15:04 48.34678 11.78091 1485 ft 14 kts 83°
2026-05-05 15:04 48.34693 11.78285 1485 ft 20 kts 83°
2026-05-05 15:05 48.34720 11.78635 1483 ft 14 kts 83°
2026-05-05 15:05 48.34730 11.78774 1485 ft 12 kts 84°
2026-05-05 15:05 48.34739 11.78887 1478 ft 10 kts 83°
2026-05-05 15:06 48.34750 11.79032 1483 ft 19 kts 83°
2026-05-05 15:06 48.34766 11.79229 1485 ft 18 kts 83°
2026-05-05 15:06 48.34779 11.79402 1484 ft 15 kts 83°
2026-05-05 15:06 48.34790 11.79549 1485 ft 13 kts 83°
2026-05-05 15:07 48.34800 11.79673 1476 ft 11 kts 83°
2026-05-05 15:07 48.34810 11.79814 1480 ft 16 kts 83°
2026-05-05 15:07 48.34823 11.79970 1485 ft 14 kts 84°
2026-05-05 15:07 48.34831 11.80085 1485 ft 6 kts 84°
2026-05-05 15:08 48.34826 11.80130 1485 ft 3 kts 112°
2026-05-05 15:08 48.34797 11.80187 1482 ft 8 kts 129°
2026-05-05 15:08 48.34765 11.80233 1481 ft 5 kts 152°
2026-05-05 15:08 48.34728 11.80243 1482 ft 7 kts 173°
2026-05-05 15:09 48.34688 11.80250 1473 ft 5 kts 173°
2026-05-05 15:09 48.34658 11.80255 1482 ft 9 kts 173°
2026-05-05 15:09 48.34602 11.80264 1482 ft 7 kts 173°
2026-05-05 15:09 48.34585 11.80267 1484 ft 0 kts 173°
2026-05-05 15:10 48.34552 11.80273 1485 ft 7 kts 173°
2026-05-05 15:10 48.34522 11.80278 1472 ft 5 kts 173°
2026-05-05 15:10 48.34493 11.80283 1481 ft 3 kts 173°
2026-05-05 15:11 48.34466 11.80274 1483 ft 7 kts 217°
2026-05-05 15:11 48.34459 11.80203 1485 ft 9 kts 268°
2026-05-05 15:11 48.34439 11.79918 1480 ft 58 kts 263°
2026-05-05 15:11 48.34367 11.78997 1486 ft 117 kts 263°
2026-05-05 15:12 48.34254 11.77515 1487 ft 165 kts 263°
2026-05-05 15:12 48.34112 11.75745 2003 ft 168 kts 264°
2026-05-05 15:12 48.33983 11.74011 2782 ft 165 kts 264°
2026-05-05 15:12 48.33817 11.72300 3397 ft 166 kts 252°
2026-05-05 15:13 48.33049 11.71024 4012 ft 175 kts 204°
2026-05-05 15:13 48.31845 11.70826 4588 ft 180 kts 183°
2026-05-05 15:13 48.30545 11.70819 4903 ft 196 kts 183°
2026-05-05 15:13 48.29116 11.70852 5168 ft 216 kts 173°
2026-05-05 15:14 48.27658 11.71741 5367 ft 243 kts 144°
2026-05-05 15:14 48.26245 11.73344 5765 ft 264 kts 145°
2026-05-05 15:14 48.24696 11.74978 6348 ft 275 kts 147°
2026-05-05 15:14 48.23115 11.76580 7101 ft 279 kts 148°
2026-05-05 15:15 48.21474 11.78221 7954 ft 280 kts 148°
2026-05-05 15:15 48.19869 11.79826 8763 ft 282 kts 148°
2026-05-05 15:15 48.18208 11.81415 9571 ft 284 kts 154°
2026-05-05 15:15 48.16370 11.82508 10199 ft 291 kts 163°
2026-05-05 15:16 48.14369 11.83500 10402 ft 314 kts 163°
2026-05-05 15:16 48.12237 11.84549 10790 ft 327 kts 163°
2026-05-05 15:16 48.10057 11.85623 11431 ft 332 kts 163°
2026-05-05 15:16 48.07848 11.86714 12105 ft 336 kts 163°
2026-05-05 15:17 48.05610 11.87821 12780 ft 340 kts 163°
2026-05-05 15:17 48.03349 11.88942 13451 ft 344 kts 163°
2026-05-05 15:17 48.01058 11.90078 14049 ft 348 kts 164°
2026-05-05 15:17 47.98775 11.91207 14650 ft 351 kts 164°
2026-05-05 15:18 47.96448 11.92357 15276 ft 353 kts 164°
2026-05-05 15:18 47.94100 11.93521 15887 ft 356 kts 164°
2026-05-05 15:18 47.91709 11.94525 16507 ft 356 kts 172°
2026-05-05 15:18 47.89252 11.94836 17114 ft 355 kts 182°
2026-05-05 15:19 47.86796 11.94783 17719 ft 357 kts 182°
2026-05-05 15:19 47.84298 11.94732 18287 ft 360 kts 182°
2026-05-05 15:19 47.81790 11.94684 18816 ft 361 kts 182°
2026-05-05 15:19 47.79267 11.94640 19330 ft 364 kts 182°
2026-05-05 15:20 47.76731 11.94595 19870 ft 365 kts 182°
2026-05-05 15:20 47.74180 11.94549 20407 ft 367 kts 182°
2026-05-05 15:20 47.71613 11.94501 20935 ft 370 kts 182°
2026-05-05 15:20 47.69033 11.94452 21446 ft 372 kts 182°
2026-05-05 15:21 47.66441 11.94403 21983 ft 374 kts 182°
2026-05-05 15:21 47.63833 11.94357 22489 ft 376 kts 182°
2026-05-05 15:21 47.61209 11.94316 22983 ft 378 kts 182°
2026-05-05 15:21 47.58572 11.94277 23430 ft 380 kts 182°
2026-05-05 15:22 47.55916 11.94235 23825 ft 382 kts 182°
2026-05-05 15:22 47.53252 11.94186 24233 ft 384 kts 182°
2026-05-05 15:22 47.50579 11.94138 24621 ft 385 kts 182°
2026-05-05 15:22 47.47889 11.94092 25016 ft 387 kts 182°
2026-05-05 15:23 47.45184 11.94045 25388 ft 389 kts 182°
2026-05-05 15:23 47.42504 11.93888 25769 ft 391 kts 188°
2026-05-05 15:23 47.39800 11.93350 26111 ft 393 kts 189°
2026-05-05 15:23 47.37079 11.92797 26443 ft 395 kts 189°
2026-05-05 15:24 47.34350 11.92246 26767 ft 397 kts 189°
2026-05-05 15:24 47.31605 11.91699 27112 ft 399 kts 189°
2026-05-05 15:24 47.28850 11.91152 27453 ft 401 kts 189°
2026-05-05 15:24 47.26078 11.90604 27794 ft 403 kts 189°
2026-05-05 15:25 47.23289 11.90049 28124 ft 405 kts 189°
2026-05-05 15:25 47.20486 11.89491 28415 ft 407 kts 189°
2026-05-05 15:25 47.17673 11.88933 28717 ft 409 kts 189°
2026-05-05 15:25 47.14847 11.88374 29018 ft 411 kts 189°
2026-05-05 15:26 47.11999 11.87808 29292 ft 413 kts 189°
2026-05-05 15:26 47.09142 11.87240 29576 ft 416 kts 189°
2026-05-05 15:26 47.06269 11.86671 29856 ft 418 kts 189°
2026-05-05 15:26 47.03382 11.86104 30100 ft 419 kts 189°
2026-05-05 15:27 47.00488 11.85496 30307 ft 421 kts 191°
2026-05-05 15:27 46.97602 11.84712 30517 ft 422 kts 193°
2026-05-05 15:27 46.94768 11.83808 30772 ft 422 kts 195°
2026-05-05 15:27 46.91911 11.82829 31073 ft 421 kts 195°
2026-05-05 15:28 46.89067 11.81842 31391 ft 420 kts 195°
2026-05-05 15:28 46.86219 11.80874 31645 ft 420 kts 195°
2026-05-05 15:28 46.83369 11.79934 31968 ft 419 kts 195°
2026-05-05 15:28 46.80519 11.79021 32309 ft 418 kts 195°
2026-05-05 15:29 46.77681 11.78129 32603 ft 417 kts 195°
2026-05-05 15:29 46.74838 11.77238 32875 ft 417 kts 195°
2026-05-05 15:29 46.72009 11.76352 32951 ft 412 kts 195°
2026-05-05 15:30 46.66467 11.74623 32975 ft 404 kts 195°
2026-05-05 15:30 46.61119 11.72442 32967 ft 399 kts 207°
2026-05-05 15:31 46.56481 11.68102 32977 ft 396 kts 218°
2026-05-05 15:31 46.52051 11.63331 32975 ft 396 kts 218°
2026-05-05 15:32 46.47610 11.58579 32976 ft 397 kts 218°
2026-05-05 15:32 46.43169 11.53831 32971 ft 396 kts 218°
2026-05-05 15:33 46.38765 11.49132 32964 ft 396 kts 218°
2026-05-05 15:33 46.34328 11.44407 32964 ft 395 kts 218°
2026-05-05 15:34 46.29897 11.39696 32964 ft 395 kts 218°
2026-05-05 15:34 46.25468 11.34991 33001 ft 395 kts 218°
2026-05-05 15:35 46.21028 11.30284 33011 ft 395 kts 218°
2026-05-05 15:35 46.16588 11.25593 32999 ft 395 kts 218°
2026-05-05 15:36 46.12179 11.20942 33003 ft 395 kts 218°
2026-05-05 15:36 46.07739 11.16274 33009 ft 394 kts 218°
2026-05-05 15:37 46.03304 11.11607 32995 ft 394 kts 218°
2026-05-05 15:37 45.98873 11.06960 32988 ft 394 kts 218°
2026-05-05 15:38 45.94461 11.02348 33000 ft 394 kts 218°
2026-05-05 15:38 45.90023 10.97712 32998 ft 394 kts 218°
2026-05-05 15:39 45.85588 10.93088 33004 ft 394 kts 218°
2026-05-05 15:39 45.81145 10.88468 32999 ft 393 kts 218°
2026-05-05 15:40 45.76739 10.83890 32999 ft 393 kts 218°
2026-05-05 15:40 45.72313 10.79304 33003 ft 392 kts 218°
2026-05-05 15:41 45.67887 10.74733 32997 ft 392 kts 218°
2026-05-05 15:41 45.63472 10.70176 32998 ft 391 kts 218°
2026-05-05 15:42 45.59058 10.65633 33001 ft 390 kts 218°
2026-05-05 15:42 45.54683 10.61138 32997 ft 390 kts 218°
2026-05-05 15:43 45.50276 10.56621 33000 ft 389 kts 218°
2026-05-05 15:43 45.45884 10.52118 32999 ft 388 kts 218°
2026-05-05 15:44 45.41492 10.47628 33000 ft 388 kts 218°
2026-05-05 15:44 45.37124 10.43176 33004 ft 388 kts 218°
2026-05-05 15:45 45.32744 10.38715 32994 ft 387 kts 218°
2026-05-05 15:45 45.28361 10.34264 32993 ft 386 kts 218°
2026-05-05 15:46 45.23981 10.29827 32989 ft 386 kts 218°
2026-05-05 15:46 45.19642 10.25439 32973 ft 385 kts 218°
2026-05-05 15:47 45.15281 10.21028 32975 ft 384 kts 218°
2026-05-05 15:47 45.10930 10.16638 32979 ft 383 kts 218°
2026-05-05 15:48 45.06580 10.12263 32979 ft 382 kts 218°
2026-05-05 15:48 45.02246 10.07915 32984 ft 382 kts 218°
2026-05-05 15:49 44.97926 10.03561 32982 ft 380 kts 219°
2026-05-05 15:49 44.93635 9.99230 32983 ft 379 kts 219°
2026-05-05 15:50 44.89376 9.94938 32983 ft 378 kts 219°
2026-05-05 15:50 44.85098 9.90644 32980 ft 377 kts 219°
2026-05-05 15:51 44.80831 9.86369 32979 ft 376 kts 219°
2026-05-05 15:51 44.76567 9.82110 32979 ft 375 kts 219°
2026-05-05 15:52 44.72320 9.77869 32982 ft 374 kts 219°
2026-05-05 15:52 44.68079 9.73641 32977 ft 373 kts 219°
2026-05-05 15:53 44.63879 9.69461 32975 ft 372 kts 219°
2026-05-05 15:53 44.59657 9.65269 32975 ft 371 kts 219°
2026-05-05 15:54 44.55441 9.61096 32972 ft 370 kts 219°
2026-05-05 15:54 44.51229 9.56932 32976 ft 369 kts 219°
2026-05-05 15:55 44.47065 9.52822 32978 ft 368 kts 219°
2026-05-05 15:55 44.42882 9.48702 32978 ft 367 kts 220°
2026-05-05 15:56 44.38710 9.44585 32979 ft 366 kts 219°
2026-05-05 15:56 44.34536 9.40479 32975 ft 366 kts 219°
2026-05-05 15:57 44.30379 9.36410 32971 ft 365 kts 219°
2026-05-05 15:57 44.26246 9.32364 32969 ft 364 kts 219°
2026-05-05 15:58 44.22109 9.28311 32966 ft 363 kts 219°
2026-05-05 15:58 44.18664 9.24954 32962 ft 363 kts 219°
2026-05-05 15:59 44.14519 9.20928 32951 ft 363 kts 219°
2026-05-05 15:59 44.10381 9.16901 32946 ft 362 kts 219°
2026-05-05 16:00 44.06243 9.12880 32940 ft 362 kts 219°
2026-05-05 16:00 44.02105 9.08869 32941 ft 362 kts 219°
2026-05-05 16:01 43.97995 9.04900 32940 ft 362 kts 219°
2026-05-05 16:01 43.93858 9.00916 32946 ft 362 kts 219°
2026-05-05 16:02 43.89725 8.96931 32942 ft 361 kts 219°
2026-05-05 16:02 43.85591 8.92943 32944 ft 361 kts 219°
2026-05-05 16:03 43.81465 8.88981 32944 ft 361 kts 219°
2026-05-05 16:03 43.77342 8.85032 32946 ft 360 kts 219°
2026-05-05 16:04 43.73255 8.81113 32949 ft 360 kts 219°
2026-05-05 16:04 43.69136 8.77179 32946 ft 359 kts 219°
2026-05-05 16:05 43.64980 8.73313 32946 ft 362 kts 214°
2026-05-05 16:05 43.60076 8.71253 32944 ft 381 kts 192°
2026-05-05 16:06 43.54713 8.71212 32936 ft 386 kts 189°
2026-05-05 16:06 43.52070 8.70934 32927 ft 371 kts 204°
2026-05-05 16:06 43.49787 8.69497 32935 ft 357 kts 217°
2026-05-05 16:07 43.45555 8.65888 32926 ft 358 kts 217°
2026-05-05 16:07 43.41342 8.62293 32928 ft 359 kts 217°
2026-05-05 16:08 43.37088 8.58662 32923 ft 360 kts 217°
2026-05-05 16:08 43.32960 8.54811 32927 ft 356 kts 223°
2026-05-05 16:09 43.29323 8.50228 32928 ft 355 kts 227°
2026-05-05 16:09 43.25795 8.45483 32933 ft 355 kts 227°
2026-05-05 16:10 43.22220 8.40858 32931 ft 355 kts 226°
2026-05-05 16:10 43.18570 8.36276 32930 ft 356 kts 225°
2026-05-05 16:11 43.14907 8.31702 32924 ft 356 kts 225°
2026-05-05 16:12 43.07588 8.22561 32931 ft 356 kts 225°
2026-05-05 16:13 42.98446 8.11178 32929 ft 357 kts 225°
2026-05-05 16:13 42.94770 8.06617 32925 ft 357 kts 225°
2026-05-05 16:14 42.87421 7.97513 32925 ft 357 kts 225°
2026-05-05 16:15 42.80063 7.88425 32927 ft 357 kts 225°
2026-05-05 16:16 42.72694 7.79356 32928 ft 357 kts 225°
2026-05-05 16:17 42.67186 7.72591 32922 ft 357 kts 225°
2026-05-05 16:18 42.61646 7.65810 32921 ft 357 kts 225°
2026-05-05 16:19 42.56102 7.59050 32922 ft 357 kts 224°
2026-05-05 16:19 42.50557 7.52298 32920 ft 357 kts 224°
2026-05-05 16:20 42.43176 7.43326 32915 ft 357 kts 224°
2026-05-05 16:22 42.33905 7.32111 32916 ft 358 kts 224°
2026-05-05 16:23 42.26477 7.23159 32915 ft 358 kts 224°
2026-05-05 16:23 42.20901 7.16457 32920 ft 358 kts 224°
2026-05-05 16:24 42.17184 7.11999 32918 ft 358 kts 224°
2026-05-05 16:25 42.11629 7.05347 32920 ft 358 kts 224°
2026-05-05 16:25 42.06046 6.98685 32914 ft 357 kts 224°
2026-05-05 16:26 41.98591 6.89817 32911 ft 357 kts 224°
2026-05-05 16:27 41.94861 6.85388 32911 ft 357 kts 224°
2026-05-05 16:27 41.91154 6.81000 32912 ft 357 kts 224°
2026-05-05 16:28 41.87425 6.76586 32913 ft 357 kts 224°
2026-05-05 16:28 41.83694 6.72172 32912 ft 357 kts 224°
2026-05-05 16:29 41.79955 6.67758 32909 ft 358 kts 223°
2026-05-05 16:29 41.76218 6.63359 32906 ft 358 kts 223°
2026-05-05 16:30 41.72478 6.58963 32910 ft 358 kts 223°
2026-05-05 16:30 41.68735 6.54563 32903 ft 358 kts 223°
2026-05-05 16:31 41.65008 6.50192 32908 ft 358 kts 223°
2026-05-05 16:31 41.61255 6.45805 32906 ft 358 kts 223°
2026-05-05 16:32 41.57498 6.41412 32908 ft 358 kts 223°
2026-05-05 16:32 41.53745 6.37033 32906 ft 358 kts 223°
2026-05-05 16:33 41.50019 6.32689 32907 ft 358 kts 223°
2026-05-05 16:33 41.46270 6.28313 32907 ft 358 kts 223°
2026-05-05 16:34 41.42509 6.23952 32903 ft 358 kts 223°
2026-05-05 16:34 41.38747 6.19601 32902 ft 358 kts 223°
2026-05-05 16:35 41.34979 6.15231 32898 ft 359 kts 223°
2026-05-05 16:35 41.31210 6.10876 32896 ft 359 kts 223°
2026-05-05 16:36 41.27437 6.06521 32899 ft 359 kts 223°
2026-05-05 16:36 41.23657 6.02171 32901 ft 359 kts 223°
2026-05-05 16:37 41.19877 5.97827 32893 ft 359 kts 223°
2026-05-05 16:37 41.16116 5.93510 32892 ft 360 kts 223°
2026-05-05 16:38 41.12327 5.89173 32897 ft 360 kts 223°
2026-05-05 16:38 41.08526 5.84824 32892 ft 361 kts 223°
2026-05-05 16:39 41.04724 5.80478 32892 ft 361 kts 223°
2026-05-05 16:39 41.00915 5.76134 32891 ft 361 kts 223°
2026-05-05 16:40 40.97101 5.71787 32896 ft 362 kts 223°
2026-05-05 16:40 40.93845 5.66788 32891 ft 360 kts 240°
2026-05-05 16:41 40.91595 5.60853 32891 ft 361 kts 242°
2026-05-05 16:41 40.89335 5.54914 32888 ft 362 kts 242°
2026-05-05 16:42 40.87067 5.48981 32893 ft 362 kts 242°
2026-05-05 16:42 40.84795 5.43048 32894 ft 362 kts 242°
2026-05-05 16:43 40.82538 5.37155 32896 ft 362 kts 242°
2026-05-05 16:43 40.80262 5.31216 32893 ft 362 kts 242°
2026-05-05 16:44 40.77988 5.25284 32892 ft 362 kts 241°
2026-05-05 16:44 40.75710 5.19362 32891 ft 362 kts 241°
2026-05-05 16:45 40.73429 5.13441 32893 ft 362 kts 241°
2026-05-05 16:45 40.71147 5.07524 32890 ft 362 kts 241°
2026-05-05 16:46 40.68858 5.01620 32891 ft 362 kts 241°
2026-05-05 16:46 40.66564 4.95726 32890 ft 361 kts 241°
2026-05-05 16:47 40.64653 4.90828 32884 ft 361 kts 241°
2026-05-05 16:47 40.62365 4.84937 32885 ft 361 kts 241°
2026-05-05 16:48 40.60076 4.79051 32885 ft 361 kts 241°
2026-05-05 16:48 40.57774 4.73179 32879 ft 361 kts 241°
2026-05-05 16:49 40.55469 4.67307 32883 ft 361 kts 241°
2026-05-05 16:49 40.53171 4.61436 32879 ft 361 kts 241°
2026-05-05 16:50 40.50882 4.55613 32879 ft 361 kts 241°
2026-05-05 16:50 40.48577 4.49762 32873 ft 361 kts 241°
2026-05-05 16:51 40.46269 4.43914 32876 ft 360 kts 241°
2026-05-05 16:51 40.43956 4.38069 32874 ft 360 kts 240°
2026-05-05 16:52 40.41644 4.32237 32874 ft 360 kts 240°
2026-05-05 16:52 40.39326 4.26406 32870 ft 360 kts 240°
2026-05-05 16:53 40.37007 4.20581 32870 ft 360 kts 240°
2026-05-05 16:53 40.34689 4.14760 32870 ft 360 kts 240°
2026-05-05 16:54 40.32379 4.08967 32872 ft 360 kts 240°
2026-05-05 16:54 40.30054 4.03156 32870 ft 360 kts 240°
2026-05-05 16:55 40.27726 3.97354 32873 ft 360 kts 240°
2026-05-05 16:55 40.25397 3.91556 32873 ft 360 kts 240°
2026-05-05 16:56 40.23059 3.85771 32874 ft 359 kts 240°
2026-05-05 16:56 40.20724 3.79982 32869 ft 359 kts 240°
2026-05-05 16:57 40.18390 3.74196 32872 ft 359 kts 240°
2026-05-05 16:57 40.16066 3.68462 32868 ft 359 kts 240°
2026-05-05 16:58 40.13729 3.62702 32870 ft 359 kts 240°
2026-05-05 16:58 40.11082 3.57225 32866 ft 357 kts 225°
2026-05-05 16:59 40.07475 3.52761 32864 ft 357 kts 224°
2026-05-05 16:59 40.03833 3.48337 32867 ft 357 kts 224°
2026-05-05 17:00 40.00186 3.43917 32866 ft 358 kts 224°
2026-05-05 17:00 39.96544 3.39500 32862 ft 358 kts 224°
2026-05-05 17:01 39.92923 3.35103 32867 ft 358 kts 224°
2026-05-05 17:01 39.89286 3.30685 32866 ft 358 kts 224°
2026-05-05 17:02 39.85639 3.26274 32870 ft 358 kts 224°
2026-05-05 17:02 39.81989 3.21875 32864 ft 358 kts 224°
2026-05-05 17:03 39.78336 3.17472 32865 ft 358 kts 224°
2026-05-05 17:03 39.74715 3.13114 32611 ft 348 kts 224°
2026-05-05 17:04 39.72952 3.10994 32179 ft 343 kts 224°
2026-05-05 17:04 39.71205 3.08896 31702 ft 340 kts 224°
2026-05-05 17:04 39.69474 3.06817 31218 ft 338 kts 224°
2026-05-05 17:04 39.67749 3.04750 30741 ft 336 kts 224°
2026-05-05 17:05 39.66038 3.02703 30279 ft 333 kts 224°
2026-05-05 17:05 39.64333 3.00665 29787 ft 332 kts 224°
2026-05-05 17:05 39.62639 2.98638 29278 ft 329 kts 224°
2026-05-05 17:05 39.60965 2.96635 28787 ft 327 kts 224°
2026-05-05 17:06 39.59321 2.94667 28322 ft 325 kts 225°
2026-05-05 17:06 39.57667 2.92685 27863 ft 322 kts 225°
2026-05-05 17:06 39.56027 2.90721 27403 ft 320 kts 225°
2026-05-05 17:06 39.54397 2.88774 26955 ft 317 kts 225°
2026-05-05 17:07 39.52777 2.86842 26506 ft 315 kts 225°
2026-05-05 17:07 39.51171 2.84928 26070 ft 313 kts 225°
2026-05-05 17:07 39.49574 2.83026 25643 ft 311 kts 225°
2026-05-05 17:07 39.48704 2.81993 25409 ft 309 kts 225°
2026-05-05 17:08 39.46781 2.79710 24885 ft 307 kts 225°
2026-05-05 17:08 39.45231 2.77870 24462 ft 305 kts 225°
2026-05-05 17:08 39.43696 2.75989 24043 ft 302 kts 228°
2026-05-05 17:08 39.42349 2.73972 23640 ft 299 kts 232°
2026-05-05 17:09 39.41047 2.71880 23169 ft 298 kts 232°
2026-05-05 17:09 39.39740 2.69799 22687 ft 296 kts 232°
2026-05-05 17:09 39.38440 2.67735 22215 ft 295 kts 232°
2026-05-05 17:09 39.37147 2.65687 21747 ft 294 kts 232°
2026-05-05 17:10 39.35857 2.63644 21288 ft 293 kts 232°
2026-05-05 17:10 39.34573 2.61611 20958 ft 292 kts 232°
2026-05-05 17:10 39.33284 2.59569 20704 ft 293 kts 232°
2026-05-05 17:10 39.31997 2.57530 20457 ft 293 kts 232°
2026-05-05 17:11 39.30710 2.55492 20205 ft 293 kts 232°
2026-05-05 17:11 39.29440 2.53483 19964 ft 292 kts 232°
2026-05-05 17:11 39.28155 2.51452 19726 ft 291 kts 232°
2026-05-05 17:11 39.26872 2.49424 19481 ft 291 kts 233°
2026-05-05 17:12 39.25591 2.47404 19238 ft 291 kts 233°
2026-05-05 17:12 39.24312 2.45388 19004 ft 289 kts 233°
2026-05-05 17:12 39.23064 2.43429 18765 ft 279 kts 233°
2026-05-05 17:12 39.21840 2.41507 18531 ft 275 kts 233°
2026-05-05 17:13 39.20631 2.39602 18297 ft 274 kts 233°
2026-05-05 17:13 39.19426 2.37703 18044 ft 273 kts 233°
2026-05-05 17:13 39.18225 2.35809 17777 ft 273 kts 233°
2026-05-05 17:13 39.17024 2.33920 17513 ft 272 kts 233°
2026-05-05 17:14 39.15823 2.32032 17248 ft 272 kts 233°
2026-05-05 17:14 39.14626 2.30154 16988 ft 271 kts 233°
2026-05-05 17:14 39.13433 2.28281 16728 ft 270 kts 233°
2026-05-05 17:14 39.12241 2.26413 16469 ft 269 kts 233°
2026-05-05 17:15 39.11050 2.24546 16217 ft 269 kts 232°
2026-05-05 17:15 39.09862 2.22689 15965 ft 269 kts 232°
2026-05-05 17:15 39.08677 2.20834 15715 ft 268 kts 232°
2026-05-05 17:15 39.07488 2.18972 15342 ft 270 kts 232°
2026-05-05 17:16 39.06311 2.17130 14909 ft 264 kts 232°
2026-05-05 17:16 39.05148 2.15313 14429 ft 264 kts 232°
2026-05-05 17:16 39.03983 2.13491 13992 ft 263 kts 232°
2026-05-05 17:16 39.02834 2.11700 13567 ft 262 kts 232°
2026-05-05 17:17 39.01675 2.09891 13093 ft 261 kts 232°
2026-05-05 17:17 39.00523 2.08093 12541 ft 261 kts 232°
2026-05-05 17:17 38.99367 2.06290 12062 ft 262 kts 232°
2026-05-05 17:17 38.98207 2.04483 11700 ft 261 kts 232°
2026-05-05 17:18 38.97052 2.02689 11363 ft 260 kts 232°
2026-05-05 17:18 38.95902 2.00902 11036 ft 258 kts 232°
2026-05-05 17:18 38.94763 1.99134 10717 ft 256 kts 232°
2026-05-05 17:18 38.93640 1.97392 10633 ft 251 kts 232°
2026-05-05 17:19 38.92554 1.95692 10515 ft 241 kts 234°
2026-05-05 17:19 38.91856 1.93810 10384 ft 232 kts 258°
2026-05-05 17:19 38.91889 1.91755 10229 ft 236 kts 281°
2026-05-05 17:19 38.92657 1.89883 9863 ft 247 kts 304°
2026-05-05 17:20 38.93781 1.88195 9456 ft 249 kts 304°
2026-05-05 17:20 38.94908 1.86507 9065 ft 248 kts 305°
2026-05-05 17:20 38.96015 1.84848 8696 ft 242 kts 305°
2026-05-05 17:20 38.97104 1.83210 8342 ft 240 kts 305°
2026-05-05 17:21 38.98184 1.81579 7979 ft 239 kts 305°
2026-05-05 17:21 38.99255 1.79959 7630 ft 238 kts 305°
2026-05-05 17:21 39.00328 1.78329 7267 ft 238 kts 306°
2026-05-05 17:22 39.01993 1.74789 6561 ft 230 kts 275°
2026-05-05 17:22 39.01846 1.72804 6221 ft 227 kts 250°
2026-05-05 17:22 39.01149 1.70985 5867 ft 227 kts 243°
2026-05-05 17:22 39.00408 1.69193 5521 ft 226 kts 243°
2026-05-05 17:23 38.99674 1.67408 5183 ft 225 kts 243°
2026-05-05 17:23 38.98952 1.65646 4850 ft 218 kts 243°
2026-05-05 17:23 38.98260 1.63959 4546 ft 208 kts 243°
2026-05-05 17:23 38.97599 1.62348 4241 ft 199 kts 243°
2026-05-05 17:24 38.96960 1.60790 3966 ft 195 kts 242°
2026-05-05 17:24 38.96541 1.59771 3763 ft 195 kts 243°